Meteo Giornale » Osservazioni meteo Italia » Catania-Fontanarossa

ore: 23:20 - Osservazioni Meteo Catania-Fontanarossa
Lat. 37° 28' N Lon. 15° 3' E Alt. 11 metri s.l.m.

sereno Europe/Rome

16 °C

Sereno

Temp. 24 Ore

12 °C

24 °C

Ovest/Sud-Ovest

9.3 Km/h

Dew point 15 °C

Umidità 93 %

Visibilità  6 Km

Il sole sorge alle ore 07:10

Il sole tramonta alle ore 18:19

Data e Ora Cielo e Fenomeni T °C DP °C Um. % Pres. hPa Vis. km Vento km/h
Oggi h: 23:20 sereno Sereno 16 15 93 1019 6 O/SO 9.3
Oggi h: 22:50 sereno Sereno 17 15 88 1019 6 O/SO 9.3
Oggi h: 21:50 sereno Sereno 19 16 82 1019 10 N 1.8
Oggi h: 21:20 sereno Sereno 20 17 82 1019 10 N 5.5
Oggi h: 20:50 sereno Sereno 20 17 82 1019 10 N 5.5
Oggi h: 20:20 sereno Sereno 21 17 77 1019 10 E/NE 7.4
Oggi h: 19:50 sereno Sereno 20 17 82 1018 10 E/NE 7.4
Oggi h: 19:20 sereno Sereno 21 17 77 1018 10 E/NE 11.1
Oggi h: 18:50 sereno Sereno 21 18 82 1018 10 E/NE 13
Oggi h: 18:20 sereno Sereno 21 18 82 1018 10 E/NE 14.8
Oggi h: 17:50 sereno Sereno 22 18 78 1018 10 E 16.7
Oggi h: 17:20 sereno Sereno 22 18 78 1018 10 E 16.7
Oggi h: 16:50 sereno Sereno 22 18 78 1018 10 E 14.8
Oggi h: 16:20 sereno Sereno 22 17 73 1018 10 E 16.7
Oggi h: 15:50 sereno Sereno 23 17 68 1018 10 E 16.7
Oggi h: 15:20 sereno Sereno 23 17 68 1018 10 E 14.8
Oggi h: 14:50 sereno Sereno 23 17 68 1018 10 E 14.8
Oggi h: 14:20 sereno Sereno 23 16 64 1019 10 E/SE 14.8
Oggi h: 13:50 sereno Sereno 24 15 57 1019 10 E/SE 13
Oggi h: 13:20 sereno Sereno 23 15 60 1019 10 E/SE 13
Oggi h: 12:50 sereno Sereno 23 16 64 1020 10 E/SE 13
Oggi h: 12:20 sereno Sereno 24 16 60 1020 10 E/SE 11.1
Oggi h: 11:50 sereno Sereno 24 15 57 1020 10 N 3.7
Oggi h: 11:20 sereno Sereno 23 16 64 1020 10 N 3.7
Oggi h: 10:50 sereno Sereno 22 15 64 1021 10 N 3.7
Oggi h: 10:20 sereno Sereno 20 15 72 1021 10 SO 7.4
Oggi h: 09:50 sereno Sereno 18 14 77 1021 10 N 5.5
Oggi h: 09:20 sereno Sereno 16 13 82 1021 10 O/SO 7.4
Oggi h: 08:50 sereno Sereno 15 13 87 1021 10 O/SO 7.4
Oggi h: 08:20 sereno Sereno 14 13 93 1021 10 SO 7.4
Oggi h: 07:50 sereno Sereno 12 11 93 1020 8 N 5.5
Oggi h: 07:20 sereno Sereno 12 11 93 1020 7 O/SO 7.4
Oggi h: 06:50 sereno Sereno 13 11 87 1020 10 N 5.5
Oggi h: 06:20 sereno Sereno 13 12 93 1020 10 S/SO 7.4
Oggi h: 05:50 sereno Sereno 14 12 87 1020 10 N 3.7
Oggi h: 05:20 sereno Sereno 14 12 87 1021 10 O/SO 9.3
Oggi h: 04:50 sereno Sereno 15 13 87 1021 10 O 9.3
Oggi h: 04:20 sereno Sereno 14 13 93 1021 10 O/SO 9.3
Oggi h: 03:50 sereno Sereno 15 13 87 1021 10 O 11.1
Oggi h: 03:20 sereno Sereno 15 13 87 1021 10 O 11.1
Oggi h: 02:50 sereno Sereno 15 13 87 1021 10 O/SO 9.3
Oggi h: 02:20 sereno Sereno 15 14 93 1022 10 O/SO 9.3
Oggi h: 01:50 sereno Sereno 16 14 87 1022 10 O/SO 7.4
Oggi h: 01:20 sereno Sereno 16 15 93 1022 10 O/SO 11.1
Oggi h: 00:50 sereno Sereno 16 15 93 1022 10 O 13
Oggi h: 00:20 sereno Sereno 17 15 88 1022 10 O 11.1
Ieri h: 23:50 sereno Sereno 17 15 88 1023 10 O 7.4